Find Kosmos-1883

NORAD ID: 18355 Int'l Des: 1987-079 Owner: UNKS Country: SU Constellation: GLONASS operational
MEOCIRCULAR

Current View

Loading 3D Globe...

About Kosmos-1883

Description loading...

Upcoming Passes

Passes for default location (London). Set your location on the main map for personalized predictions.

Altitude History

Loading altitude history...

Two-Line Element Set

1 18355U 87079A 26147.28992139 -.00000060 00000-0 00000+0 0 9992
2 18355 65.6061 319.4398 0004265 244.1530 113.6255 2.13101088301080
Epoch: May 27, 2026 • Age: 73 hours

Current Status

Altitude 19128.4 km
Velocity 3.95 km/s
Sub-Earth Point 15.85°N, 128.79°E
Launch Date Sep 16, 1987
Age 38.7 years
Type other

Technical Details

Classification Payload
Mass 1300.00 kg
Dry Mass 1200.00 kg
Total Mass 1300.00 kg
Length 4.00 m
Diameter 1.50 m
Span 7.80 m
Shape Cyl + Ant + 2 Pan
Manufacturer OAZ
Bus Type Uragan
Phase Status In Orbit
Owner/State UNKS/SU

Most Searched